Location: Mococo
(38.0255°N, 122.1161°W)
Time: 02:52:50
(UTC+00:00)

Cosmos 1486 Rocket - Pass Details

Date: 13 February 2026
Orbit: 755 x 778 km, 74.1° (Epoch: 13 March)

Event Time Altitude Azimuth Distance (km) Brightness Sun altitude
Exits shadow 12:36:47 59° 144° (SE) 898 4.3 -28.9°
Maximum altitude 12:37:27 65° 105° (ESE) 855 4.3 -28.7°
Drops below altitude 10° 12:42:42 10° 24° (NNE) 2,332 6.8 -27.7°
Sets 12:45:06 0° 22° (NNE) 3,261 7.6 -27.2°
